User: anonymous   Login
Location: Coupvray
(48.8929°N, 2.7967°E)
Time: 06:38:16
(UTC+00:00)
Language:

CZ-4C R/B - Orbit

View from above orbital plane
View from above orbital plane
View from above satellite
View from above satellite

Ground track
Ground track

The orbit data is extracted from the following two-line orbital elements,

1 39211U 13037D   20272.60856133 +.00000954 +00000-0 +60725-4 0  9997
2 39211 097.9869 045.6836 0122984 216.7207 142.5547 15.05529494394669
Epoch (UTC): 28 September 2020 14:36:19
Eccentricity: 0.0122984
inclination: 97.9869°
perigee height: 464 km
apogee height: 635 km
right ascension of ascending node: 45.6836°
argument of perigee: 216.7207°
revolutions per day: 15.05529494
mean anomaly at epoch: 142.5547°
orbit number at epoch: 39466

The dashed part of the orbit path shows where the satellite is in the earth's shadow,  

DLR